EZY32GY EGCC-EDDH

Flight info

Callsign EZY32GY
Flight time 1h 14m
Altitude 35000
Route DESIG L603 LAMSO DCT PETIK P154 SPY N873 ANDIK M105 RIBSO RIBSO7A
Aircraft A320/M-SDE2E3FGHIJ1RWXYZ/LB1

Departure

Time 2026-05-05 15:42
Airport Manchester Airport (EGCC)

Arrival

Time 2026-05-05 16:57
Airport Hamburg Helmut Schmidt Airport (EDDH)
Time Latitude Longitude Altitude Speed Heading
2026-05-05 15:06 53.36442 -2.27731 235 ft 0 kts 45°
2026-05-05 15:31 53.36427 -2.27756 233 ft 4 kts 42°
2026-05-05 15:31 53.36407 -2.27785 235 ft 4 kts 36°
2026-05-05 15:31 53.36384 -2.27808 235 ft 4 kts 19°
2026-05-05 15:31 53.36361 -2.27812 236 ft 4 kts 324°
2026-05-05 15:32 53.36354 -2.27803 235 ft 1 kts 315°
2026-05-05 15:32 53.36354 -2.27802 235 ft 0 kts 315°
2026-05-05 15:36 53.36369 -2.27827 236 ft 7 kts 315°
2026-05-05 15:36 53.36387 -2.27936 233 ft 13 kts 244°
2026-05-05 15:36 53.36305 -2.28053 233 ft 16 kts 200°
2026-05-05 15:36 53.36226 -2.28105 233 ft 13 kts 211°
2026-05-05 15:37 53.36131 -2.28131 233 ft 15 kts 150°
2026-05-05 15:37 53.36058 -2.28012 233 ft 14 kts 134°
2026-05-05 15:37 53.35996 -2.27904 233 ft 12 kts 134°
2026-05-05 15:37 53.35928 -2.27848 233 ft 10 kts 175°
2026-05-05 15:38 53.35862 -2.27851 233 ft 9 kts 182°
2026-05-05 15:38 53.35797 -2.27864 233 ft 11 kts 187°
2026-05-05 15:38 53.35717 -2.27876 233 ft 13 kts 185°
2026-05-05 15:38 53.35626 -2.27911 235 ft 15 kts 215°
2026-05-05 15:39 53.35552 -2.28050 233 ft 17 kts 228°
2026-05-05 15:39 53.35485 -2.28128 233 ft 10 kts 204°
2026-05-05 15:39 53.35413 -2.28162 234 ft 12 kts 187°
2026-05-05 15:39 53.35317 -2.28194 233 ft 16 kts 202°
2026-05-05 15:40 53.35228 -2.28309 233 ft 13 kts 229°
2026-05-05 15:40 53.35166 -2.28434 233 ft 15 kts 230°
2026-05-05 15:40 53.35097 -2.28578 233 ft 18 kts 231°
2026-05-05 15:40 53.35013 -2.28735 233 ft 12 kts 215°
2026-05-05 15:41 53.34943 -2.28710 234 ft 13 kts 143°
2026-05-05 15:41 53.34873 -2.28618 234 ft 11 kts 141°
2026-05-05 15:41 53.34878 -2.28524 235 ft 8 kts 50°
2026-05-05 15:41 53.34946 -2.28385 235 ft 44 kts 51°
2026-05-05 15:42 53.35302 -2.27647 234 ft 114 kts 51°
2026-05-05 15:42 53.35913 -2.26393 259 ft 161 kts 50°
2026-05-05 15:42 53.36644 -2.24901 786 ft 165 kts 49°
2026-05-05 15:42 53.37354 -2.23406 1521 ft 164 kts 50°
2026-05-05 15:43 53.38091 -2.21843 1941 ft 179 kts 49°
2026-05-05 15:43 53.38897 -2.20133 2304 ft 195 kts 50°
2026-05-05 15:43 53.39786 -2.18242 2656 ft 216 kts 50°
2026-05-05 15:43 53.40757 -2.16178 3163 ft 231 kts 50°
2026-05-05 15:44 53.41794 -2.13976 3696 ft 250 kts 51°
2026-05-05 15:44 53.42889 -2.11648 4516 ft 257 kts 51°
2026-05-05 15:44 53.44006 -2.09267 4907 ft 260 kts 51°
2026-05-05 15:44 53.45121 -2.06885 4995 ft 259 kts 51°
2026-05-05 15:45 53.46227 -2.04521 5213 ft 263 kts 51°
2026-05-05 15:45 53.47355 -2.02106 6210 ft 263 kts 51°
2026-05-05 15:45 53.48495 -1.99667 7044 ft 268 kts 51°
2026-05-05 15:45 53.49668 -1.97182 7810 ft 274 kts 51°
2026-05-05 15:46 53.50870 -1.94646 8573 ft 281 kts 51°
2026-05-05 15:46 53.51828 -1.91739 9325 ft 290 kts 70°
2026-05-05 15:46 53.52213 -1.88377 10076 ft 298 kts 88°
2026-05-05 15:46 53.51964 -1.84901 10749 ft 306 kts 104°
2026-05-05 15:47 53.51366 -1.81327 10983 ft 329 kts 106°
2026-05-05 15:47 53.50932 -1.78842 11236 ft 340 kts 106°
2026-05-05 15:47 53.50022 -1.73758 12110 ft 347 kts 107°
2026-05-05 15:47 53.49319 -1.69847 12821 ft 352 kts 107°
2026-05-05 15:48 53.48609 -1.65890 13567 ft 356 kts 107°
2026-05-05 15:48 53.47895 -1.61895 14232 ft 360 kts 107°
2026-05-05 15:48 53.47177 -1.57852 14866 ft 363 kts 107°
2026-05-05 15:48 53.46452 -1.53771 15477 ft 367 kts 107°
2026-05-05 15:49 53.45718 -1.49648 16090 ft 371 kts 107°
2026-05-05 15:49 53.44971 -1.45481 16703 ft 375 kts 108°
2026-05-05 15:49 53.44214 -1.41276 17315 ft 378 kts 108°
2026-05-05 15:49 53.43445 -1.37032 17912 ft 382 kts 108°
2026-05-05 15:50 53.42668 -1.32748 18473 ft 386 kts 108°
2026-05-05 15:50 53.41894 -1.28472 18993 ft 390 kts 108°
2026-05-05 15:50 53.41104 -1.24111 19525 ft 393 kts 108°
2026-05-05 15:50 53.40306 -1.19716 20063 ft 396 kts 109°
2026-05-05 15:51 53.39497 -1.15286 20608 ft 399 kts 109°
2026-05-05 15:51 53.38681 -1.10837 21141 ft 402 kts 109°
2026-05-05 15:51 53.37858 -1.06341 21668 ft 405 kts 109°
2026-05-05 15:51 53.37029 -1.01814 22190 ft 408 kts 109°
2026-05-05 15:52 53.36464 -0.98734 22535 ft 411 kts 109°
2026-05-05 15:52 53.35620 -0.94156 23053 ft 414 kts 110°
2026-05-05 15:52 53.34764 -0.89539 23566 ft 417 kts 110°
2026-05-05 15:52 53.33902 -0.84895 23995 ft 419 kts 110°
2026-05-05 15:53 53.33043 -0.80282 24431 ft 421 kts 110°
2026-05-05 15:53 53.32170 -0.75604 24871 ft 422 kts 110°
2026-05-05 15:53 53.31291 -0.70904 25308 ft 424 kts 109°
2026-05-05 15:53 53.30410 -0.66189 25735 ft 426 kts 109°
2026-05-05 15:54 53.29527 -0.61462 26149 ft 427 kts 109°
2026-05-05 15:54 53.28639 -0.56723 26543 ft 428 kts 109°
2026-05-05 15:54 53.27741 -0.51959 26935 ft 430 kts 109°
2026-05-05 15:54 53.26838 -0.47187 27329 ft 431 kts 109°
2026-05-05 15:55 53.25933 -0.42400 27722 ft 433 kts 109°
2026-05-05 15:55 53.25021 -0.37596 28099 ft 435 kts 110°
2026-05-05 15:55 53.24102 -0.32782 28461 ft 436 kts 110°
2026-05-05 15:55 53.23174 -0.27941 28816 ft 438 kts 110°
2026-05-05 15:56 53.22244 -0.23088 29158 ft 440 kts 110°
2026-05-05 15:56 53.21310 -0.18216 29486 ft 442 kts 110°
2026-05-05 15:56 53.20369 -0.13329 29815 ft 444 kts 110°
2026-05-05 15:56 53.19421 -0.08419 30120 ft 446 kts 110°
2026-05-05 15:57 53.18469 -0.03493 30381 ft 447 kts 110°
2026-05-05 15:57 53.17511 0.01450 30620 ft 449 kts 110°
2026-05-05 15:57 53.16542 0.06445 30850 ft 452 kts 110°
2026-05-05 15:57 53.15576 0.11408 31088 ft 453 kts 110°
2026-05-05 15:58 53.14600 0.16407 31328 ft 455 kts 110°
2026-05-05 15:58 53.13620 0.21407 31645 ft 454 kts 110°
2026-05-05 15:58 53.12641 0.26397 31989 ft 452 kts 110°
2026-05-05 15:58 53.11663 0.31366 32329 ft 451 kts 110°
2026-05-05 15:59 53.10683 0.36322 32670 ft 450 kts 110°
2026-05-05 15:59 53.09705 0.41257 32994 ft 449 kts 110°
2026-05-05 15:59 53.08722 0.46197 33320 ft 448 kts 110°
2026-05-05 15:59 53.07744 0.51112 33636 ft 448 kts 110°
2026-05-05 16:00 53.06765 0.56035 33934 ft 448 kts 110°
2026-05-05 16:00 53.05783 0.60956 34191 ft 448 kts 110°
2026-05-05 16:00 53.04812 0.65805 34420 ft 448 kts 110°
2026-05-05 16:00 53.03812 0.70780 34654 ft 448 kts 110°
2026-05-05 16:01 53.02821 0.75697 34880 ft 449 kts 110°
2026-05-05 16:01 53.00856 0.85402 34981 ft 442 kts 110°
2026-05-05 16:02 52.98890 0.95036 34983 ft 440 kts 111°
2026-05-05 16:02 52.97312 1.04854 34981 ft 442 kts 103°
2026-05-05 16:03 52.96159 1.14896 34982 ft 443 kts 103°
2026-05-05 16:03 52.94990 1.24934 34980 ft 443 kts 103°
2026-05-05 16:04 52.93821 1.34968 34981 ft 443 kts 103°
2026-05-05 16:04 52.92648 1.44994 34982 ft 443 kts 103°
2026-05-05 16:05 52.91458 1.55016 34971 ft 444 kts 104°
2026-05-05 16:05 52.90253 1.65046 34965 ft 444 kts 104°
2026-05-05 16:06 52.89037 1.75092 34968 ft 445 kts 104°
2026-05-05 16:06 52.87816 1.85150 34967 ft 446 kts 104°
2026-05-05 16:07 52.86592 1.95207 34974 ft 446 kts 104°
2026-05-05 16:07 52.85358 2.05256 34966 ft 446 kts 104°
2026-05-05 16:08 52.84118 2.15255 34963 ft 447 kts 104°
2026-05-05 16:08 52.82859 2.25323 34965 ft 447 kts 104°
2026-05-05 16:09 52.81583 2.35398 34966 ft 448 kts 104°
2026-05-05 16:09 52.80301 2.45472 34972 ft 448 kts 104°
2026-05-05 16:10 52.79015 2.55542 34965 ft 448 kts 104°
2026-05-05 16:10 52.77722 2.65603 34972 ft 448 kts 104°
2026-05-05 16:11 52.76413 2.75650 34974 ft 447 kts 105°
2026-05-05 16:12 52.73783 2.95711 34976 ft 447 kts 105°
2026-05-05 16:13 52.71258 3.20983 34989 ft 446 kts 100°
2026-05-05 16:13 52.70389 3.31082 34992 ft 444 kts 101°
2026-05-05 16:14 52.68467 3.51154 34972 ft 442 kts 102°
2026-05-05 16:15 52.66535 3.71049 34973 ft 440 kts 102°
2026-05-05 16:16 52.64592 3.90939 34963 ft 439 kts 103°
2026-05-05 16:17 52.63096 4.05814 34938 ft 439 kts 104°
2026-05-05 16:18 52.61584 4.20699 34929 ft 440 kts 104°
2026-05-05 16:19 52.59931 4.35540 34928 ft 439 kts 105°
2026-05-05 16:19 52.58173 4.50338 34923 ft 440 kts 105°
2026-05-05 16:20 52.55849 4.70069 34920 ft 440 kts 105°
2026-05-05 16:21 52.55243 4.80100 34920 ft 447 kts 89°
2026-05-05 16:22 52.58442 4.94507 34914 ft 458 kts 54°
2026-05-05 16:23 52.66350 5.11047 34910 ft 461 kts 53°
2026-05-05 16:23 52.72285 5.23596 34906 ft 463 kts 56°
2026-05-05 16:24 52.75225 5.32951 34913 ft 458 kts 73°
2026-05-05 16:25 52.78432 5.47847 34910 ft 460 kts 73°
2026-05-05 16:25 52.81651 5.62787 34900 ft 461 kts 73°
2026-05-05 16:26 52.85896 5.82830 34909 ft 462 kts 73°
2026-05-05 16:27 52.88017 5.92889 34917 ft 463 kts 73°
2026-05-05 16:27 52.90139 6.02977 34916 ft 464 kts 73°
2026-05-05 16:28 52.92247 6.13087 34905 ft 465 kts 73°
2026-05-05 16:28 52.94349 6.23216 34908 ft 466 kts 73°
2026-05-05 16:29 52.96453 6.33389 34916 ft 466 kts 73°
2026-05-05 16:29 52.98547 6.43575 34922 ft 467 kts 73°
2026-05-05 16:30 53.00627 6.53767 34922 ft 467 kts 73°
2026-05-05 16:30 53.02703 6.63990 34926 ft 467 kts 73°
2026-05-05 16:31 53.04778 6.74220 34929 ft 467 kts 73°
2026-05-05 16:31 53.06846 6.84460 34937 ft 468 kts 74°
2026-05-05 16:32 53.08886 6.94668 34919 ft 469 kts 74°
2026-05-05 16:32 53.10932 7.04967 34578 ft 467 kts 74°
2026-05-05 16:33 53.11620 7.08436 34414 ft 466 kts 74°
2026-05-05 16:33 53.12318 7.11955 34251 ft 465 kts 74°
2026-05-05 16:33 53.13331 7.17074 34005 ft 465 kts 74°
2026-05-05 16:33 53.14343 7.22186 33742 ft 465 kts 74°
2026-05-05 16:34 53.15352 7.27296 33463 ft 463 kts 74°
2026-05-05 16:34 53.16337 7.32312 33200 ft 461 kts 74°
2026-05-05 16:34 53.17327 7.37371 32919 ft 458 kts 74°
2026-05-05 16:34 53.18306 7.42392 32463 ft 453 kts 74°
2026-05-05 16:35 53.19272 7.47370 31971 ft 450 kts 74°
2026-05-05 16:35 53.20226 7.52319 31470 ft 447 kts 74°
2026-05-05 16:35 53.21172 7.57236 31013 ft 444 kts 74°
2026-05-05 16:35 53.22111 7.62115 30539 ft 441 kts 74°
2026-05-05 16:36 53.23046 7.66972 30082 ft 438 kts 74°
2026-05-05 16:36 53.23976 7.71792 29580 ft 434 kts 74°
2026-05-05 16:36 53.24892 7.76556 29157 ft 429 kts 74°
2026-05-05 16:36 53.25798 7.81279 28723 ft 425 kts 74°
2026-05-05 16:37 53.26692 7.85961 28315 ft 420 kts 74°
2026-05-05 16:37 53.27575 7.90596 27891 ft 416 kts 74°
2026-05-05 16:37 53.28444 7.95178 27475 ft 412 kts 74°
2026-05-05 16:37 53.29308 7.99744 26807 ft 414 kts 74°
2026-05-05 16:38 53.30189 8.04430 25676 ft 430 kts 73°
2026-05-05 16:38 53.31080 8.09200 25215 ft 427 kts 73°
2026-05-05 16:38 53.31676 8.12386 24978 ft 422 kts 73°
2026-05-05 16:38 53.32552 8.17039 24575 ft 417 kts 73°
2026-05-05 16:39 53.33476 8.21551 24158 ft 414 kts 71°
2026-05-05 16:39 53.34490 8.26041 23721 ft 410 kts 69°
2026-05-05 16:39 53.35542 8.30457 23275 ft 407 kts 68°
2026-05-05 16:39 53.36598 8.34824 22782 ft 403 kts 68°
2026-05-05 16:40 53.37639 8.39166 22321 ft 400 kts 69°
2026-05-05 16:40 53.38648 8.43460 21687 ft 393 kts 69°
2026-05-05 16:40 53.39628 8.47712 20853 ft 388 kts 69°
2026-05-05 16:40 53.40594 8.51893 20078 ft 383 kts 68°
2026-05-05 16:41 53.41623 8.55977 19327 ft 377 kts 66°
2026-05-05 16:41 53.42699 8.59958 18608 ft 372 kts 65°
2026-05-05 16:41 53.43788 8.63866 17824 ft 369 kts 64°
2026-05-05 16:41 53.44878 8.67753 17039 ft 365 kts 64°
2026-05-05 16:42 53.45930 8.71549 16597 ft 352 kts 64°
2026-05-05 16:42 53.46926 8.75195 16369 ft 340 kts 65°
2026-05-05 16:42 53.47903 8.78808 16058 ft 339 kts 65°
2026-05-05 16:42 53.48864 8.82397 15755 ft 336 kts 65°
2026-05-05 16:43 53.49821 8.85987 15402 ft 336 kts 65°
2026-05-05 16:43 53.50771 8.89558 15032 ft 335 kts 65°
2026-05-05 16:43 53.51732 8.93125 14667 ft 334 kts 65°
2026-05-05 16:43 53.52689 8.96667 14299 ft 332 kts 65°
2026-05-05 16:44 53.53645 9.00206 13874 ft 334 kts 65°
2026-05-05 16:44 53.54586 9.03694 13522 ft 322 kts 65°
2026-05-05 16:44 53.55505 9.07097 12923 ft 317 kts 65°
2026-05-05 16:44 53.56419 9.10482 12298 ft 313 kts 65°
2026-05-05 16:45 53.57309 9.13778 11680 ft 310 kts 65°
2026-05-05 16:45 53.58200 9.17067 11062 ft 308 kts 65°
2026-05-05 16:45 53.59082 9.20326 10443 ft 305 kts 65°
2026-05-05 16:45 53.59956 9.23550 10122 ft 302 kts 65°
2026-05-05 16:46 53.60789 9.26807 9948 ft 303 kts 73°
2026-05-05 16:46 53.60977 9.30286 9837 ft 298 kts 99°
2026-05-05 16:46 53.60297 9.33515 9478 ft 291 kts 127°
2026-05-05 16:46 53.58890 9.35799 9327 ft 275 kts 150°
2026-05-05 16:47 53.57279 9.37390 8910 ft 265 kts 153°
2026-05-05 16:47 53.55674 9.38862 8342 ft 261 kts 154°
2026-05-05 16:47 53.54108 9.40282 7967 ft 251 kts 154°
2026-05-05 16:47 53.52580 9.41663 7472 ft 248 kts 154°
2026-05-05 16:48 53.51063 9.43010 6994 ft 245 kts 154°
2026-05-05 16:48 53.49553 9.44307 6514 ft 243 kts 154°
2026-05-05 16:48 53.48045 9.45586 6003 ft 241 kts 154°
2026-05-05 16:48 53.46547 9.46843 5485 ft 240 kts 152°
2026-05-05 16:49 53.45286 9.48605 4978 ft 237 kts 122°
2026-05-05 16:49 53.44771 9.51164 4469 ft 232 kts 91°
2026-05-05 16:49 53.44801 9.53818 4126 ft 222 kts 85°
2026-05-05 16:49 53.44898 9.56303 3987 ft 205 kts 85°
2026-05-05 16:50 53.44993 9.58629 3720 ft 197 kts 84°
2026-05-05 16:50 53.45084 9.60900 3361 ft 193 kts 83°
2026-05-05 16:50 53.45374 9.63050 3035 ft 186 kts 62°
2026-05-05 16:50 53.46106 9.64824 3021 ft 187 kts 49°
2026-05-05 16:51 53.46946 9.66496 3012 ft 187 kts 49°
2026-05-05 16:51 53.47783 9.68167 3030 ft 182 kts 49°
2026-05-05 16:51 53.48587 9.69771 3013 ft 185 kts 49°
2026-05-05 16:51 53.49375 9.71348 3005 ft 187 kts 49°
2026-05-05 16:52 53.50215 9.73028 3001 ft 188 kts 49°
2026-05-05 16:52 53.51055 9.74709 3007 ft 189 kts 49°
2026-05-05 16:52 53.51900 9.76401 3007 ft 188 kts 49°
2026-05-05 16:52 53.52692 9.77990 2892 ft 191 kts 49°
2026-05-05 16:53 53.53542 9.79695 2677 ft 190 kts 50°
2026-05-05 16:53 53.54382 9.81380 2452 ft 185 kts 49°
2026-05-05 16:53 53.55181 9.82985 2195 ft 172 kts 50°
2026-05-05 16:53 53.55906 9.84443 1960 ft 159 kts 50°
2026-05-05 16:54 53.56590 9.85819 1761 ft 148 kts 50°
2026-05-05 16:54 53.57226 9.87098 1579 ft 136 kts 50°
2026-05-05 16:54 53.57825 9.88304 1394 ft 133 kts 50°
2026-05-05 16:54 53.58413 9.89487 1205 ft 132 kts 50°
2026-05-05 16:55 53.58998 9.90670 1007 ft 135 kts 51°
2026-05-05 16:55 53.59612 9.91907 834 ft 140 kts 50°
2026-05-05 16:55 53.60238 9.93169 628 ft 139 kts 50°
2026-05-05 16:55 53.60851 9.94385 405 ft 135 kts 51°
2026-05-05 16:56 53.61415 9.95533 241 ft 132 kts 51°
2026-05-05 16:56 53.61984 9.96684 84 ft 127 kts 52°
2026-05-05 16:56 53.62499 9.97728 40 ft 97 kts 51°
2026-05-05 16:56 53.62848 9.98430 44 ft 72 kts 50°
2026-05-05 16:57 53.63134 9.99016 46 ft 57 kts 50°
2026-05-05 16:57 53.63285 9.99393 44 ft 16 kts 82°
2026-05-05 16:57 53.63288 9.99530 47 ft 12 kts 95°
2026-05-05 16:57 53.63280 9.99623 48 ft 0 kts 99°
2026-05-05 16:59 53.63278 9.99639 48 ft 3 kts 99°
2026-05-05 16:59 53.63268 9.99697 47 ft 7 kts 117°
2026-05-05 16:59 53.63225 9.99757 48 ft 9 kts 150°
2026-05-05 17:00 53.63163 9.99812 47 ft 11 kts 152°
2026-05-05 17:00 53.63090 9.99877 48 ft 13 kts 152°
2026-05-05 17:00 53.63006 9.99949 48 ft 14 kts 153°
2026-05-05 17:00 53.62940 10.00007 48 ft 9 kts 152°
2026-05-05 17:01 53.62909 10.00078 48 ft 7 kts 78°
2026-05-05 17:01 53.62950 10.00136 48 ft 10 kts 33°
2026-05-05 17:01 53.63007 10.00198 48 ft 9 kts 32°
2026-05-05 17:01 53.63059 10.00251 48 ft 6 kts 28°
2026-05-05 17:02 53.63074 10.00278 47 ft 4 kts 64°
2026-05-05 17:02 53.63075 10.00343 48 ft 5 kts 94°
2026-05-05 17:02 53.63074 10.00373 48 ft 0 kts 92°
2026-05-05 17:02 53.63074 10.00383 48 ft 0 kts 93°
2026-05-05 17:03 53.63073 10.00387 48 ft 0 kts 93°